Decatur, AL

9:59 PM CDT on July 26, 2017 (GMT -0500)
Pryor Regional

Weather History for KDCU - February, 2012

Change the Weather History Date:

Tuesday, February 14, 2012

  Actual Average Record
Temperature  
Mean Temperature 42 °F -  
Max Temperature 48 °F 54 °F 75 °F (1959)
Min Temperature 37 °F 33 °F 8 °F (1971)
Degree Days  
Heating Degree Days 22    
Moisture  
Dew Point 40 °F    
Average Humidity 87    
Maximum Humidity 93    
Minimum Humidity 79    
Precipitation  
Precipitation 0.06 in - - ()
Sea Level Pressure  
Sea Level Pressure 30.03 in    
Wind  
Wind Speed 6 mph (South)    
Max Wind Speed 14 mph    
Max Gust Speed -    
Visibility 8 miles    
Events Rain    
Averages and records for this station are not official NWS values.
T = Trace of Precipitation, MM = Missing Value Source: NWS Daily Summary

Daily Weather History Graph

Daily Weather History Graph

Search for Another Location

Airport or City:

Trip Planner

Search our weather history database for the weather conditions in past years. The results will help you decide how hot, cold, wet, or windy it might be!

Date:

Astronomy

Feb. 14, 2012 Rise Set
Actual Time 6:34 AM CST 5:29 PM CST
Civil Twilight 6:09 AM CST 5:55 PM CST
Nautical Twilight 5:39 AM CST 6:25 PM CST
Astronomical Twilight 5:10 AM CST 6:54 PM CST
Moon 12:13 AM CST (2/14) 10:40 AM CST (2/14)
Length of Visible Light 11h 46m
Length of Day
10h 54m
Waning Gibbous, 50% of the Moon is Illuminated
Feb 14
Waning Gibbous
Feb 21
New
Feb 29
First Quarter
Mar 8
Full
Mar 14
Last Quarter

Hourly Weather History & Observations

Time (CST) Temp. Windchill Dew Point Humidity Pressure Visibility Wind Dir Wind Speed Gust Speed Precip Events Conditions
12:53 AM 39.0 °F 31.8 °F 33.1 °F 79% 30.02 in 10.0 mi SSE 11.5 mph - 0.01 in   Overcast
1:53 AM 37.9 °F 29.6 °F 34.0 °F 86% 29.99 in 4.0 mi SSE 13.8 mph - 0.04 in Rain Heavy Rain
2:09 AM 37.4 °F - 35.6 °F 93% 29.98 in 6.0 mi Calm Calm - 0.01 in Rain Light Rain
3:53 AM 37.9 °F 35.5 °F 35.1 °F 89% 29.96 in 10.0 mi ESE 3.5 mph - 0.00 in   Overcast
4:53 AM 39.9 °F - 37.0 °F 89% 29.97 in 10.0 mi Calm Calm - 0.01 in   Overcast
5:53 AM 39.9 °F 35.8 °F 37.0 °F 89% 29.98 in 9.0 mi SSE 5.8 mph - N/A   Overcast
6:06 AM 39.2 °F 35.9 °F 37.4 °F 93% 29.97 in 8.0 mi SE 4.6 mph - N/A   Overcast
6:53 AM 39.9 °F 37.8 °F 37.0 °F 89% 29.99 in 8.0 mi East 3.5 mph - 0.00 in   Overcast
8:53 AM 42.1 °F 37.1 °F 39.0 °F 89% 30.02 in 4.0 mi South 8.1 mph - N/A   Overcast
9:53 AM 43.0 °F 39.5 °F 39.9 °F 89% 30.03 in 5.0 mi SSE 5.8 mph - N/A   Overcast
10:53 AM 44.1 °F 39.5 °F 41.0 °F 89% 30.03 in 6.0 mi SSE 8.1 mph - N/A   Overcast
11:53 AM 45.0 °F 41.8 °F 42.1 °F 90% 30.01 in 8.0 mi South 5.8 mph - N/A   Overcast
12:53 PM 46.9 °F - 42.1 °F 83% 30.01 in 8.0 mi SW 5.8 mph - N/A   Overcast
1:02 PM 46.4 °F 42.4 °F 42.8 °F 87% 30.00 in 8.0 mi SW 8.1 mph - N/A   Overcast
1:53 PM 46.9 °F - 42.1 °F 83% 30.01 in 7.0 mi SW 4.6 mph - N/A   Overcast
2:53 PM 48.0 °F - 43.0 °F 83% 30.02 in 8.0 mi SSW 4.6 mph - N/A   Overcast
3:50 PM 48.2 °F - 42.8 °F 82% 30.03 in 9.0 mi WNW 4.6 mph - N/A   Overcast
3:53 PM 48.0 °F - 43.0 °F 83% 30.04 in 9.0 mi WNW 3.5 mph - N/A   Overcast
4:53 PM 48.0 °F - 43.0 °F 83% 30.05 in 9.0 mi Calm Calm - N/A   Overcast
7:53 PM 46.9 °F - 43.0 °F 86% 30.11 in 9.0 mi Calm Calm - N/A   Overcast
8:53 PM 46.0 °F - 43.0 °F 89% 30.12 in 8.0 mi Calm Calm - N/A   Overcast
9:53 PM 46.0 °F - 43.0 °F 89% 30.14 in 7.0 mi Calm Calm - N/A   Overcast
10:53 PM 45.0 °F - 43.0 °F 93% 30.14 in 8.0 mi Calm Calm - N/A   Overcast
11:53 PM 46.0 °F - 43.0 °F 89% 30.14 in 9.0 mi Calm Calm - N/A   Overcast